Weather History for Jefferson, NC

Change the Weather History Date:

Friday, February 14, 2014

  Actual Average Record
Temperature  
Mean Temperature 38 °F -  
Max Temperature 47 °F 46 °F 68 °F (1990)
Min Temperature 29 °F 25 °F 9 °F (1986)
Degree Days  
Heating Degree Days 27    
Moisture  
Dew Point 20 °F    
Average Humidity 51    
Maximum Humidity 70    
Minimum Humidity 25    
Precipitation  
Precipitation 0.19 in - - ()
Sea Level Pressure  
Sea Level Pressure 29.64 in    
Wind  
Wind Speed 30 mph (West)    
Max Wind Speed 48 mph    
Max Gust Speed 68 mph    
Visibility 6 miles    
Events Snow    
Averages and records for this station are not official NWS values.
T = Trace of Precipitation, MM = Missing Value Source: NWS Daily Summary

Daily Weather History Graph

Daily Weather History Graph

Search for Another Location

Airport:

Trip Planner

Search our weather history database for the weather conditions in past years. The results will help you decide how hot, cold, wet, or windy it might be!

Date:

Astronomy

Feb. 14, 2014 Rise Set
Actual Time 7:14 AM EST 6:05 PM EST
Civil Twilight 6:48 AM EST 6:31 PM EST
Nautical Twilight 6:17 AM EST 7:02 PM EST
Astronomical Twilight 5:48 AM EST 7:32 PM EST
Moon 6:06 PM EST (2/14) 6:41 AM EST (2/14)
Length of Visible Light 11h 43m
Length of Day
10h 50m
Full, 100% of the Moon is Illuminated
Feb 14
Full
Feb 14
Full
Feb 22
Last Quarter
Mar 1
New
Mar 8
First Quarter

Hourly Weather History & Observations

Time (EST) Temp. Windchill Dew Point Humidity Pressure Visibility Wind Dir Wind Speed Gust Speed Precip Events Conditions
12:15 AM 29.7 °F 12.5 °F 18.3 °F 63% 29.58 in 0.8 mi WNW 40.3 mph 54.1 mph N/A Snow Light Snow
12:35 AM 29.7 °F 11.8 °F 18.5 °F 63% 29.57 in 0.8 mi West 44.9 mph 57.5 mph N/A Snow Snow
12:55 AM 29.3 °F 11.3 °F 19.0 °F 66% 29.57 in 0.5 mi West 44.9 mph 56.4 mph N/A Snow Heavy Snow
1:15 AM 29.8 °F 12.6 °F 18.5 °F 63% 29.58 in 0.8 mi West 41.4 mph 62.1 mph N/A Snow Light Snow
1:35 AM 30.0 °F 11.8 °F 18.7 °F 63% 29.57 in 0.5 mi West 48.3 mph 59.8 mph N/A Snow Snow
1:55 AM 30.2 °F 12.7 °F 18.5 °F 62% 29.58 in 0.5 mi West 43.7 mph 61.0 mph N/A Snow Snow
2:15 AM 30.2 °F 12.4 °F 18.3 °F 61% 29.58 in 0.5 mi West 46.0 mph 56.4 mph N/A Snow Snow
2:35 AM 30.2 °F 12.7 °F 18.5 °F 62% 29.59 in 0.5 mi West 43.7 mph 67.9 mph 0.01 in Snow Snow
2:55 AM 30.7 °F 14.4 °F 18.5 °F 60% 29.58 in 1.2 mi West 38.0 mph 58.7 mph 0.01 in Snow Light Snow
3:15 AM 30.9 °F 14.7 °F 20.1 °F 64% 29.59 in 1.0 mi West 38.0 mph 59.8 mph N/A Snow Light Snow
3:35 AM 30.7 °F 13.8 °F 20.8 °F 67% 29.58 in 1.0 mi West 41.4 mph 57.5 mph 0.01 in Snow Light Snow
3:55 AM 30.7 °F 14.2 °F 20.1 °F 65% 29.58 in 1.2 mi West 39.1 mph 57.5 mph 0.01 in Snow Light Snow
4:15 AM 30.7 °F 14.8 °F 20.5 °F 66% 29.59 in 1.0 mi West 35.7 mph 61.0 mph 0.03 in Snow Light Snow
4:35 AM 30.6 °F 14.6 °F 20.7 °F 67% 29.59 in 1.2 mi WNW 35.7 mph 62.1 mph 0.05 in Snow Light Snow
4:55 AM 30.7 °F 15.5 °F 20.5 °F 66% 29.59 in 1.0 mi West 32.2 mph 62.1 mph 0.05 in Snow Light Snow
5:15 AM 30.6 °F 14.8 °F 20.7 °F 67% 29.60 in 1.2 mi West 34.5 mph 50.6 mph 0.01 in Snow Light Snow
5:35 AM 30.2 °F 14.7 °F 21.2 °F 69% 29.61 in 2.0 mi West 32.2 mph 56.4 mph 0.01 in Snow Light Snow
5:55 AM 30.6 °F 13.6 °F 21.4 °F 69% 29.61 in 1.5 mi West 41.4 mph 52.9 mph 0.01 in Snow Light Snow
6:15 AM 30.7 °F 14.4 °F 21.6 °F 69% 29.61 in 1.8 mi West 38.0 mph 50.6 mph 0.01 in Snow Light Snow
6:35 AM 31.1 °F 14.5 °F 21.7 °F 68% 29.62 in 1.8 mi West 40.3 mph 52.9 mph 0.01 in Snow Light Snow
6:55 AM 31.1 °F 13.8 °F 22.1 °F 69% 29.62 in 1.2 mi West 44.9 mph 55.2 mph 0.01 in Snow Light Snow
7:15 AM 30.7 °F 13.0 °F 21.9 °F 70% 29.62 in 1.2 mi West 47.2 mph 61.0 mph 0.01 in Snow Light Snow
7:35 AM 30.7 °F 13.5 °F 22.1 °F 70% 29.63 in 0.2 mi West 43.7 mph 56.4 mph 0.03 in Snow Light Snow
7:55 AM 31.5 °F 14.7 °F 22.1 °F 68% 29.63 in 0.2 mi West 42.6 mph 59.8 mph 0.04 in Snow Light Snow
8:15 AM 32.0 °F 15.6 °F 22.5 °F 68% 29.63 in 0.5 mi West 41.4 mph 56.4 mph 0.01 in Snow Light Snow
8:35 AM 32.7 °F 16.3 °F 22.5 °F 66% 29.64 in 0.5 mi West 43.7 mph 57.5 mph 0.03 in Snow Light Snow
8:55 AM 33.1 °F 17.5 °F 22.6 °F 66% 29.64 in 0.5 mi West 39.1 mph 51.8 mph 0.04 in Snow Light Snow
9:15 AM 33.6 °F 18.6 °F 22.1 °F 63% 29.64 in 0.5 mi West 36.8 mph 50.6 mph N/A Snow Light Snow
9:35 AM 35.1 °F 20.2 °F 20.8 °F 56% 29.64 in 1.0 mi West 39.1 mph 49.5 mph 0.01 in Snow Light Snow
9:55 AM 35.6 °F 21.3 °F 20.7 °F 55% 29.64 in 1.0 mi West 36.8 mph 47.2 mph 0.01 in Snow Light Snow
10:15 AM 36.5 °F 22.4 °F 19.8 °F 51% 29.65 in 1.8 mi West 38.0 mph 48.3 mph 0.01 in Snow Light Snow
10:35 AM 37.4 °F 24.6 °F 19.6 °F 49% 29.66 in 1.2 mi West 32.2 mph 49.5 mph 0.01 in Snow Light Snow
10:55 AM 38.1 °F 26.6 °F 18.7 °F 46% 29.68 in 2.5 mi West 26.5 mph 49.5 mph 0.01 in Snow Light Snow
11:15 AM 38.5 °F 27.3 °F 19.6 °F 47% 29.70 in 7.0 mi West 25.3 mph 36.8 mph N/A   Clear
11:35 AM 39.6 °F 29.5 °F 18.7 °F 43% 29.70 in 10.0 mi West 21.9 mph 38.0 mph N/A   Clear
12:00 PM 40.6 °F 33.0 °F 19.2 °F 42% 29.71 in 10.0 mi West 13.8 mph 25.3 mph N/A   Clear
12:15 PM 41.0 °F 32.5 °F 18.9 °F 41% 29.72 in 10.0 mi West 17.3 mph 27.6 mph N/A   Clear
12:35 PM 42.6 °F 37.8 °F 13.6 °F 31% 29.72 in 10.0 mi West 8.1 mph 17.3 mph N/A   Clear
12:55 PM 43.9 °F 38.8 °F 14.7 °F 31% 29.71 in 10.0 mi West 9.2 mph 18.4 mph N/A   Clear
1:15 PM 44.8 °F 38.0 °F 15.8 °F 31% 29.71 in 10.0 mi WNW 15.0 mph 18.4 mph N/A   Clear
1:35 PM 44.6 °F 37.8 °F 12.6 °F 27% 29.71 in 10.0 mi WSW 15.0 mph 23.0 mph N/A   Clear
1:55 PM 44.8 °F 36.2 °F 13.1 °F 28% 29.70 in 10.0 mi West 23.0 mph 28.8 mph N/A   Clear
2:15 PM 45.1 °F 37.3 °F 15.3 °F 30% 29.71 in 10.0 mi West 19.6 mph 26.5 mph N/A   Clear
2:35 PM 45.5 °F 38.3 °F 14.7 °F 29% 29.71 in 10.0 mi West 17.3 mph 21.9 mph N/A   Clear
2:55 PM 45.7 °F 41.5 °F 12.9 °F 27% 29.71 in 10.0 mi West 8.1 mph 23.0 mph N/A   Clear
3:15 PM 46.6 °F - 11.8 °F 25% 29.70 in 10.0 mi WSW 5.8 mph - N/A   Clear
3:35 PM 46.6 °F - 12.2 °F 25% 29.69 in 10.0 mi WSW 5.8 mph 16.1 mph N/A   Clear
3:55 PM 46.9 °F - 12.7 °F 25% 29.69 in 10.0 mi WSW 9.2 mph - N/A   Clear
4:15 PM 46.8 °F - 12.9 °F 26% 29.68 in 10.0 mi WSW 5.8 mph - N/A   Clear
4:35 PM 46.6 °F - 12.7 °F 26% 29.68 in 10.0 mi WSW 5.8 mph - N/A   Clear
4:55 PM 47.3 °F - 13.1 °F 25% 29.69 in 10.0 mi WSW 6.9 mph - N/A   Clear
5:15 PM 47.3 °F - 13.3 °F 25% 29.68 in 10.0 mi SSW 3.5 mph - N/A   Clear
5:35 PM 46.0 °F 44.8 °F 14.5 °F 28% 29.69 in 10.0 mi SW 3.5 mph - N/A   Clear
5:55 PM 44.8 °F - 14.9 °F 30% 29.68 in 10.0 mi Calm Calm - N/A   Clear
6:15 PM 43.5 °F - 14.9 °F 32% 29.68 in 10.0 mi Calm Calm - N/A   Clear
6:35 PM 42.8 °F 40.1 °F 16.2 °F 34% 29.66 in 10.0 mi SE 4.6 mph - N/A   Clear
6:55 PM 39.9 °F 37.8 °F 20.5 °F 46% 29.66 in 10.0 mi SSE 3.5 mph - N/A   Clear
7:15 PM 38.8 °F - 21.6 °F 50% 29.66 in 10.0 mi Calm Calm - N/A   Clear
7:35 PM 39.7 °F 37.6 °F 23.0 °F 51% 29.66 in 10.0 mi SSE 3.5 mph - N/A   Clear
7:55 PM 39.9 °F 37.8 °F 23.9 °F 53% 29.65 in 10.0 mi SSE 3.5 mph - N/A   Scattered Clouds
8:15 PM 38.5 °F - 25.0 °F 58% 29.64 in 10.0 mi Calm Calm - N/A   Overcast
8:35 PM 39.6 °F - 24.8 °F 56% 29.64 in 10.0 mi Calm Calm - N/A   Overcast
8:55 PM 39.4 °F 37.2 °F 24.8 °F 56% 29.63 in 10.0 mi SSE 3.5 mph - N/A   Overcast
9:15 PM 39.2 °F - 25.7 °F 58% 29.64 in 10.0 mi Calm Calm - N/A   Overcast
9:35 PM 38.5 °F 32.7 °F 26.4 °F 62% 29.63 in 10.0 mi South 8.1 mph - N/A   Overcast
9:55 PM 39.9 °F 35.1 °F 25.5 °F 56% 29.63 in 10.0 mi SW 6.9 mph - N/A   Overcast
10:15 PM 42.6 °F 37.8 °F 23.7 °F 47% 29.63 in 10.0 mi West 8.1 mph - N/A   Overcast
10:35 PM 41.0 °F 33.5 °F 25.0 °F 53% 29.62 in 10.0 mi WNW 13.8 mph 18.4 mph N/A   Overcast
10:55 PM 39.9 °F 34.5 °F 25.5 °F 56% 29.62 in 10.0 mi West 8.1 mph - N/A   Overcast
11:15 PM 39.4 °F - 25.3 °F 57% 29.62 in 10.0 mi Calm Calm - N/A   Overcast
11:35 PM 37.9 °F - 26.2 °F 63% 29.61 in 10.0 mi Calm Calm - N/A   Overcast
11:55 PM 37.4 °F - 26.6 °F 65% 29.60 in 10.0 mi Calm Calm - N/A   Overcast